Wind_Speed
11 14 11 10 9 5 2 5 7 6 5 6 4 4 2 1 2 4 2 3 5 4 5 6 6 8 10 14 17 19 26 33 32 28 29 35 41 44 47 50 53 54 53 52 53 54 54 54 54 55 55 55 55 55 54 53 52 52 52 51 51 50 49
11 14 14 10 11 10 6 6 7 3 5 4 4 2 2 2 4 5 2 5 5 3 5 5 5 8 9 11 13 14 21 26 26 27 31 36 40 45 49 52 53 53 53 53 54 55 55 55 56 57 57 56 56 55 54 53 52 51 51 51 51 50 50
7 8 10 6 8 10 6 5 7 5 3 4 3 3 4 4 4 5 3 5 5 6 5 3 5 9 10 11 12 13 16 18 22 28 32 35 39 42 45 47 49 50 52 54 55 55 56 55 56 56 57 56 56 55 55 54 53 50 49 49 50 50 50
6 5 6 6 6 7 3 2 5 4 3 4 4 4 4 4 4 3 4 5 5 7 7 6 8 11 11 11 11 11 14 18 25 30 33 36 39 41 43 46 49 51 53 55 56 57 56 56 56 56 55 55 55 56 55 55 54 52 51 51 51 50 50
5 4 5 9 9 8 5 4 5 4 2 2 3 2 3 4 4 3 3 6 5 5 6 10 11 11 11 12 12 11 14 22 30 34 37 39 41 42 44 46 49 52 54 54 56 57 56 55 55 54 53 54 55 55 55 56 55 54 54 53 52 52 51
3 4 8 13 15 12 10 7 7 7 4 4 4 4 3 3 5 5 4 6 7 4 5 8 10 10 10 12 13 11 14 23 30 35 40 43 43 44 46 48 50 51 52 53 54 55 55 53 52 52 52 52 53 54 55 56 56 55 55 55 54 53 52
4 6 8 10 13 13 12 10 9 8 6 6 6 7 4 3 3 2 3 5 9 5 7 9 9 10 11 13 13 12 16 25 30 34 40 43 43 45 46 46 46 47 50 52 52 52 53 52 52 52 51 52 53 54 55 56 56 56 56 55 54 53 53
3 5 6 5 4 6 8 8 8 8 8 8 8 6 4 4 4 2 2 7 8 5 5 8 8 8 9 11 13 14 17 24 29 33 37 38 39 41 40 38 39 42 45 48 48 49 51 51 51 51 52 53 53 54 55 55 56 57 57 56 55 54 54
4 4 5 5 4 1 4 6 7 9 11 11 7 3 4 4 7 8 6 8 7 5 3 4 6 7 6 9 13 15 17 21 24 26 31 35 36 36 36 34 35 37 40 44 47 48 50 51 51 51 52 53 53 54 54 55 56 56 56 56 55 55 55
7 5 5 5 2 3 3 3 8 12 13 14 10 4 4 6 7 9 7 7 6 6 4 5 7 6 7 10 11 12 16 21 21 21 26 31 32 34 36 35 35 37 40 44 47 49 50 52 52 52 53 53 54 54 55 55 56 56 56 56 56 55 55
4 2 5 4 1 3 5 4 6 11 13 15 12 8 8 6 5 7 8 7 5 7 5 6 7 6 8 10 9 9 16 21 22 21 23 24 26 30 34 35 37 37 39 43 47 49 50 51 52 53 53 54 54 54 55 55 55 55 55 55 55 55 55
2 3 9 10 5 4 6 8 9 10 12 15 15 14 9 8 6 10 10 8 7 8 7 8 9 8 7 9 9 11 15 18 19 18 18 19 22 26 29 32 35 37 39 43 46 48 49 50 51 52 53 53 54 54 55 55 54 54 54 54 55 55 55
7 6 10 11 7 5 7 10 12 11 12 16 19 17 10 10 10 14 10 10 10 8 8 9 10 9 9 11 12 12 12 13 15 17 18 20 22 24 27 31 34 37 39 42 45 47 49 49 50 51 51 52 53 53 54 54 54 54 54 54 55 55 55
9 9 9 8 6 5 7 10 11 12 14 16 18 16 12 12 13 12 8 10 11 9 8 9 11 11 10 9 10 10 11 13 14 16 20 22 22 24 26 30 33 36 38 40 44 47 48 49 49 50 51 52 53 53 54 54 54 54 54 54 55 55 56
8 9 7 6 8 8 9 10 10 11 13 15 15 13 10 10 11 10 9 9 9 8 6 7 11 11 6 6 8 12 17 18 16 17 20 21 21 21 23 26 30 33 36 39 42 44 47 48 49 50 51 52 53 53 53 54 54 54 54 54 55 55 56
5 6 6 10 13 12 10 12 11 10 10 10 10 9 9 10 10 10 12 10 7 7 6 7 11 11 7 7 9 16 21 19 17 18 20 20 19 19 20 21 24 29 34 38 41 44 46 48 49 50 50 51 52 52 53 54 54 53 53 54 55 55 55
5 7 7 10 11 9 8 8 7 8 10 10 9 8 9 11 12 10 12 11 8 8 7 7 9 10 9 10 11 15 18 16 15 18 21 21 21 20 20 20 21 24 28 33 38 42 45 47 49 50 50 50 51 51 52 53 52 52 53 54 54 54 54
4 9 9 7 5 5 5 2 1 4 8 11 13 13 10 11 12 11 10 8 8 9 9 9 12 13 11 10 10 10 11 11 13 17 20 21 22 22 22 22 23 24 25 28 33 38 42 45 46 48 49 50 50 49 50 50 51 52 53 53 54 54 54
3 7 6 3 6 7 4 5 5 4 4 3 7 14 16 14 13 13 10 8 9 10 10 14 19 15 8 5 4 4 6 9 11 15 19 20 21 23 23 24 26 25 24 25 29 33 38 41 43 46 47 48 48 48 49 49 50 52 52 53 53 53 53
2 3 2 4 7 8 8 7 7 7 6 9 9 9 14 11 9 10 10 10 10 8 10 16 18 12 9 7 5 4 4 6 9 14 18 20 21 23 23 23 25 24 22 22 24 27 31 36 40 43 45 46 48 48 49 49 50 51 51 51 52 51 52
3 3 4 4 6 10 7 3 5 4 2 4 4 4 8 7 3 6 9 9 10 8 8 12 14 13 10 5 2 2 3 5 8 11 14 16 17 17 18 19 21 20 19 20 21 23 27 31 35 38 40 43 45 46 47 48 48 48 48 49 49 50 50
4 3 4 3 3 4 3 2 1 1 3 4 3 3 5 6 3 3 4 8 11 9 5 8 13 13 8 4 3 3 4 5 5 6 7 8 9 9 10 12 15 15 15 16 17 19 22 25 27 31 35 39 41 42 44 45 46 46 47 47 47 48 49
5 4 4 3 3 5 5 3 4 5 5 1 5 2 6 4 8 12 9 7 10 10 7 10 12 10 5 6 6 4 7 8 8 8 5 3 1 2 3 5 8 9 10 11 11 12 15 18 21 25 30 35 38 40 42 43 44 45 46 45 44 45 47
6 6 5 3 3 5 4 3 7 10 7 2 5 3 6 5 13 19 14 10 11 11 10 13 12 7 7 7 7 8 11 11 12 11 10 9 8 6 4 1 1 3 4 5 6 6 7 8 12 18 24 29 34 37 38 41 43 44 44 42 41 42 44
7 8 5 4 4 4 3 4 8 11 8 3 6 5 5 10 19 23 18 14 13 10 11 14 10 6 7 11 14 13 13 14 14 13 13 13 13 13 11 9 7 5 3 1 1 3 4 3 5 10 16 23 28 32 35 39 42 42 42 41 40 41 42
6 6 5 4 5 3 2 3 5 9 4 3 3 7 13 16 21 23 19 15 13 8 7 11 9 12 14 16 17 14 13 14 14 14 14 14 14 15 15 14 13 12 10 8 5 0 3 4 5 7 11 17 22 28 33 37 38 39 40 41 41 40 42
5 4 5 6 5 3 3 3 3 7 2 4 6 11 15 17 19 21 18 14 13 9 1 5 10 16 17 16 16 14 13 13 13 13 14 13 13 13 14 15 15 15 14 14 12 8 4 2 4 6 8 12 16 22 28 30 32 34 37 38 38 39 41
5 5 6 5 4 3 2 2 3 3 2 6 8 7 8 15 19 20 16 13 12 10 6 4 7 12 14 15 15 14 13 13 13 14 14 14 13 13 13 14 14 14 14 15 15 13 10 7 4 4 5 8 11 16 20 22 25 28 30 32 35 37 39
4 5 5 4 6 5 5 8 9 7 2 5 7 5 5 10 15 17 16 13 12 11 7 3 4 8 12 14 15 15 15 14 15 16 15 14 14 13 12 11 11 12 12 12 12 12 11 10 7 5 4 6 9 12 15 17 19 22 25 28 31 33 36
6 7 5 7 8 6 7 11 13 10 6 5 6 7 7 8 9 11 12 11 10 11 10 7 7 9 13 15 16 16 16 16 16 15 14 14 13 11 10 10 10 10 10 9 8 8 9 8 7 5 3 3 5 8 11 12 14 17 21 25 28 30 33
6 5 3 6 7 7 8 11 14 13 9 6 8 11 11 9 8 6 6 8 10 15 18 14 11 11 13 15 17 17 18 18 17 16 15 14 12 10 9 9 9 8 8 7 7 7 6 5 4 4 3 2 1 3 6 7 9 12 16 20 23 25 28
6 5 1 4 7 8 7 7 10 13 10 8 12 14 12 11 10 6 5 7 10 16 20 19 15 13 12 14 15 17 18 19 19 18 17 15 14 12 11 10 9 8 8 8 8 7 7 5 5 4 4 4 5 5 6 7 7 9 11 15 17 19 20
8 9 5 4 6 4 5 9 9 10 10 11 14 15 11 10 10 9 6 6 10 15 19 20 18 13 11 12 13 15 17 18 17 17 17 15 14 14 13 12 11 10 9 9 8 8 7 7 7 7 7 8 8 8 9 10 10 10 10 12 15 16 17
6 7 5 5 4 1 4 11 13 10 8 8 10 10 9 8 9 11 10 6 10 16 18 19 19 14 9 9 12 14 16 17 17 17 17 16 16 15 15 14 13 12 12 12 10 8 7 6 7 7 8 9 9 10 10 11 12 12 12 12 13 14 15
8 12 12 5 1 1 6 13 15 11 7 2 3 5 6 6 6 7 10 10 10 16 17 18 19 15 7 5 9 14 17 17 18 18 18 18 18 17 16 15 15 15 14 13 12 11 9 7 5 5 6 6 6 8 9 10 11 13 13 14 14 13 13
16 24 22 11 5 3 6 13 15 14 12 9 8 7 2 3 2 3 6 10 11 13 16 17 18 13 5 3 8 14 17 17 17 17 18 18 18 17 17 17 16 16 15 14 14 13 12 10 8 7 7 7 8 8 7 7 8 9 11 12 13 13 14
23 24 19 11 7 3 8 13 12 13 14 13 14 12 8 5 3 3 5 6 9 10 13 16 16 11 5 5 10 14 17 17 17 17 17 17 17 17 17 17 17 16 15 14 13 12 12 11 11 11 11 12 12 11 9 8 7 7 8 9 10 11 13
Wind_Direction
190 186 176 161 164 173 168 154 184 204 141 135 217 246 184 116 262 259 218 251 290 303 282 269 224 220 210 205 214 215 221 226 226 224 217 212 214 214 214 217 219 221 221 221 221 221 222 221 221 222 224 225 226 226 227 228 230 230 231 232 232 232 233
222 189 168 177 177 152 134 189 193 120 84 140 184 245 279 240 250 276 234 230 270 275 271 271 193 206 223 212 208 214 222 226 226 225 220 216 216 216 216 217 219 220 220 221 222 222 222 222 222 223 225 227 227 227 228 229 229 230 231 233 233 233 233
212 165 161 191 193 175 169 182 169 131 130 187 162 183 228 222 242 278 278 254 241 211 230 258 198 207 223 219 211 212 220 223 224 225 224 221 220 219 218 217 218 219 220 221 222 222 223 223 223 225 226 226 225 227 228 229 231 232 232 233 233 234 234
160 135 166 192 209 220 220 130 156 159 167 178 171 179 181 186 224 257 299 291 253 221 203 184 205 219 217 218 216 211 217 220 220 222 224 223 222 221 218 217 218 219 220 221 222 223 224 223 223 224 224 223 223 225 227 228 231 232 232 233 234 234 235
148 161 196 191 193 210 207 186 193 189 167 153 164 200 168 165 194 200 254 269 258 242 197 179 199 216 213 214 215 213 218 218 218 220 222 224 224 223 221 219 219 219 220 221 222 223 224 224 223 223 222 222 223 224 225 227 229 230 232 233 234 234 235
184 205 208 197 194 195 190 198 202 190 177 130 149 243 239 175 192 182 194 255 262 248 196 187 198 209 214 214 211 217 223 221 220 221 222 225 226 225 224 223 221 219 219 221 221 222 223 222 222 221 221 221 222 222 224 227 228 229 232 233 234 234 234
216 228 224 212 209 202 194 201 199 186 175 148 174 227 223 185 222 159 137 255 268 247 195 193 201 207 215 216 209 212 225 225 224 223 225 227 228 229 228 226 222 220 219 221 221 221 221 221 221 220 220 221 222 223 224 225 226 230 232 233 234 234 234
280 273 290 303 272 203 201 215 199 182 187 187 200 211 173 182 217 173 191 251 269 270 212 203 216 220 224 230 223 218 225 229 228 226 228 229 231 232 232 229 225 221 220 221 221 220 220 220 220 219 219 221 222 223 223 224 227 231 232 231 232 232 233
243 266 289 299 309 212 213 226 206 198 195 192 205 187 135 207 207 176 201 240 248 281 280 243 252 250 251 252 236 225 230 236 234 230 230 232 233 234 234 232 228 222 219 220 221 221 220 220 220 219 219 221 222 223 222 224 228 230 230 230 230 230 232
215 219 224 223 261 276 258 230 209 208 200 192 198 187 182 224 205 177 203 237 252 289 291 251 252 251 256 261 249 236 239 245 245 239 237 237 235 235 235 232 230 225 220 220 222 222 221 221 220 220 220 220 222 223 224 225 228 228 228 229 229 230 231
217 240 254 237 284 291 286 290 231 213 207 201 201 209 208 198 179 201 218 212 232 267 253 232 241 236 243 258 263 251 241 243 246 243 242 240 237 237 237 232 229 226 222 221 223 224 223 222 222 221 221 221 221 223 224 226 226 227 227 228 228 229 230
259 294 287 279 284 263 259 282 262 228 214 204 206 220 206 150 169 230 229 190 206 246 239 227 230 225 233 247 252 253 246 244 249 251 251 249 244 242 239 233 230 226 223 222 223 224 224 223 223 223 222 223 223 223 225 226 225 225 227 227 227 228 229
302 290 282 276 278 253 238 255 258 249 232 213 214 220 197 161 201 236 225 186 198 231 234 230 228 213 215 230 237 247 255 258 265 268 266 260 253 247 241 237 232 229 228 226 224 225 225 224 223 223 223 223 223 224 225 225 225 226 226 226 227 228 228
308 293 279 272 280 278 266 263 256 255 247 232 227 224 205 199 223 240 221 188 197 219 219 222 231 219 213 231 243 245 252 259 264 267 268 267 262 254 248 244 238 233 232 231 228 226 225 224 223 223 223 224 224 225 226 225 226 227 226 225 226 227 229
306 296 296 302 303 298 286 272 261 258 256 249 242 232 216 212 225 239 235 207 209 239 242 237 251 254 257 269 265 253 251 251 251 258 267 271 268 261 256 253 245 238 235 234 230 226 224 226 226 225 225 226 226 226 225 225 227 227 225 225 226 227 230
293 293 324 325 317 312 289 267 262 257 251 252 250 234 215 210 211 223 236 229 225 246 254 256 266 273 274 261 251 252 253 251 249 257 264 266 269 270 267 263 255 246 239 234 232 230 228 228 228 228 228 227 225 226 226 227 227 225 224 225 227 230 232
286 288 314 324 321 314 283 262 264 251 235 234 244 245 229 215 204 209 227 227 216 211 208 226 251 257 252 247 244 249 257 258 254 257 260 263 268 272 272 272 267 259 251 241 237 236 233 229 229 231 230 228 228 230 231 230 226 223 224 226 228 231 231
278 288 312 330 301 262 252 258 329 271 247 233 232 237 235 218 211 223 235 223 202 198 187 197 227 236 236 238 236 239 254 256 247 251 258 263 268 270 272 276 274 270 262 251 243 240 237 235 234 233 231 231 234 234 231 228 225 224 226 228 229 231 231
263 295 331 316 233 241 291 345 357 334 316 308 257 241 234 223 219 231 245 234 214 205 191 203 222 225 206 186 181 188 226 240 239 247 255 260 266 268 269 272 274 274 271 260 251 244 241 240 237 233 231 231 232 231 228 227 227 227 227 228 230 230 230
228 294 302 226 245 293 320 336 355 2 13 14 353 273 247 239 220 219 233 241 235 218 205 215 220 204 155 133 119 131 194 228 234 241 248 254 259 262 264 266 270 274 273 265 256 250 245 242 238 235 234 232 229 228 228 228 228 227 226 226 228 228 229
183 227 254 259 300 319 320 340 14 21 358 346 349 267 268 277 238 208 219 234 245 242 225 213 197 167 145 139 105 109 167 208 221 230 241 249 254 258 261 264 268 270 267 260 254 249 245 241 239 237 235 232 229 227 226 226 226 225 224 225 228 229 230
182 210 262 289 310 295 258 239 307 296 272 264 180 180 284 304 342 318 249 232 237 240 222 189 171 152 147 206 229 166 156 171 178 195 221 238 249 258 258 258 263 265 261 255 249 246 244 243 242 241 236 233 230 227 225 225 225 225 226 229 231 233 233
180 191 227 234 239 244 236 246 285 300 300 256 127 148 277 305 1 348 320 266 246 237 200 164 155 147 166 224 227 168 139 132 126 129 139 144 165 262 253 245 252 254 252 250 246 245 247 248 246 243 238 234 231 229 228 227 227 228 231 234 235 237 237
190 195 219 229 236 252 264 292 311 320 332 83 129 211 261 315 341 332 317 289 271 253 204 167 158 176 200 200 185 154 132 119 112 110 107 98 90 77 72 73 275 260 250 250 248 249 257 258 249 244 239 235 232 231 231 229 229 232 236 238 239 240 239
206 201 222 259 253 251 276 296 316 334 350 100 159 213 280 320 319 316 312 300 294 276 216 191 180 182 167 149 146 141 125 114 111 106 100 92 83 76 73 72 66 58 52 39 285 267 267 258 244 242 240 235 233 232 230 229 232 237 239 239 239 239 238
219 199 208 250 256 256 264 268 339 10 25 170 221 296 317 320 313 314 322 325 329 327 239 207 168 136 132 132 135 132 121 115 110 103 102 100 90 80 76 75 74 72 70 69 67 0 246 239 232 232 239 239 236 233 231 234 239 241 239 238 238 237 236
216 198 200 219 229 239 245 243 17 37 58 235 288 310 322 331 326 325 335 348 2 14 34 169 134 128 128 125 124 119 112 109 101 95 98 98 89 80 73 69 68 68 71 74 75 79 94 192 216 211 224 236 238 238 240 244 247 245 242 242 242 240 239
198 196 205 204 193 208 219 182 120 107 238 284 296 300 331 348 342 337 343 1 26 49 76 111 121 120 118 117 118 111 104 102 95 87 83 79 77 73 66 63 62 61 65 69 71 77 84 91 119 164 193 213 229 241 248 253 253 251 250 249 246 244 243
246 243 230 156 131 139 124 115 122 129 107 321 307 300 351 3 353 348 354 12 42 65 70 61 95 102 101 106 110 105 98 91 81 75 71 68 68 66 62 62 59 57 58 59 60 67 73 78 91 112 144 178 206 227 239 244 247 249 252 251 249 248 248
286 262 222 137 124 136 129 117 110 94 57 11 347 343 2 24 12 353 357 17 52 83 84 61 54 74 86 92 93 91 87 80 72 69 66 61 59 58 58 53 45 47 52 51 51 55 56 59 66 68 83 145 189 211 224 232 235 237 242 246 249 250 251
282 251 189 128 137 150 133 113 96 80 63 40 25 7 359 17 26 9 16 43 71 92 92 76 53 56 74 82 81 80 79 75 72 69 65 60 54 49 45 37 28 26 28 29 34 39 38 39 39 27 15 358 313 250 243 245 238 235 237 241 246 250 252
270 260 256 114 139 147 134 115 91 80 77 56 36 22 8 14 24 26 56 84 93 96 94 87 71 59 65 73 75 77 78 75 72 70 67 63 59 53 48 40 29 18 10 10 10 6 3 359 348 332 316 311 310 302 296 288 272 257 247 244 247 251 253
284 270 253 145 128 123 127 132 115 90 81 59 38 27 14 12 23 27 38 88 106 102 98 96 88 77 73 78 78 79 79 76 72 70 68 65 62 58 53 45 40 35 29 23 15 3 353 344 330 318 305 296 290 286 289 289 287 282 270 257 253 251 251
274 259 233 177 160 206 159 141 130 115 97 67 46 35 19 11 26 28 15 28 93 101 97 94 92 89 85 90 94 91 85 80 74 68 67 65 63 58 52 44 40 37 35 35 35 30 13 352 331 314 302 292 284 280 280 280 284 288 286 279 272 262 255
271 285 287 280 136 183 172 154 148 153 159 140 86 63 27 3 20 35 12 5 52 88 92 88 90 94 92 100 105 98 89 83 77 70 66 64 61 58 53 49 44 39 34 31 32 32 28 20 1 330 311 301 300 302 299 294 293 292 290 290 289 284 275
273 279 279 284 329 320 184 162 157 163 168 163 151 135 89 330 335 56 25 4 27 71 90 93 96 102 111 127 110 98 89 83 77 71 68 65 63 60 57 54 51 47 40 33 27 22 21 23 20 5 356 0 3 357 343 324 314 309 306 304 301 299 298
257 263 268 279 305 286 167 157 154 158 160 154 146 146 160 195 200 95 61 26 29 62 87 97 104 113 130 128 108 97 91 86 81 76 72 68 65 63 59 54 51 48 44 38 30 19 10 7 5 0 3 10 13 12 10 9 9 6 356 344 331 323 318
Height
1415 1418 1421 1423 1431 1441 1446 1449 1450 1444 1440 1447 1463 1469 1463 1465 1476 1471 1459 1450 1438 1431 1426 1416 1416 1418 1416 1416 1416 1416 1417 1416 1419 1422 1424 1428 1429 1431 1434 1436 1438 1441 1445 1449 1452 1455 1458 1461 1464 1466 1469 1471 1473 1476 1478 1481 1484 1486 1489 1491 1493 1496 1499
1414 1412 1417 1420 1421 1428 1440 1446 1439 1435 1441 1447 1457 1470 1469 1471 1479 1470 1454 1449 1443 1439 1433 1419 1416 1420 1418 1416 1415 1414 1414 1414 1417 1418 1419 1421 1422 1424 1427 1429 1432 1436 1440 1444 1446 1449 1452 1455 1458 1460 1463 1466 1469 1473 1475 1477 1480 1482 1485 1487 1490 1493 1495
1413 1410 1418 1426 1422 1420 1427 1431 1427 1433 1450 1455 1457 1467 1472 1476 1481 1469 1454 1448 1441 1436 1431 1422 1419 1419 1416 1414 1413 1413 1413 1412 1413 1413 1414 1417 1418 1420 1423 1426 1429 1432 1435 1438 1440 1444 1447 1450 1453 1456 1459 1463 1466 1469 1472 1474 1477 1479 1481 1484 1486 1489 1491
1412 1412 1420 1429 1428 1422 1422 1425 1426 1428 1438 1446 1451 1455 1458 1466 1475 1469 1458 1450 1436 1424 1419 1417 1417 1414 1411 1411 1411 1411 1409 1407 1407 1408 1409 1411 1413 1415 1417 1420 1423 1425 1428 1431 1434 1438 1441 1445 1448 1451 1455 1459 1462 1465 1468 1471 1474 1476 1479 1482 1483 1486 1488
1413 1417 1418 1420 1422 1423 1425 1429 1431 1430 1431 1434 1441 1446 1443 1449 1461 1464 1463 1453 1430 1413 1408 1408 1408 1406 1405 1406 1406 1405 1403 1401 1401 1402 1403 1405 1406 1408 1410 1413 1415 1418 1422 1425 1429 1433 1436 1440 1444 1448 1452 1455 1457 1461 1464 1467 1470 1473 1475 1477 1479 1482 1485
1416 1415 1409 1405 1408 1412 1417 1423 1425 1427 1429 1433 1445 1452 1441 1436 1444 1448 1454 1450 1424 1404 1402 1401 1400 1400 1399 1398 1399 1399 1397 1397 1397 1398 1398 1399 1400 1402 1404 1405 1408 1412 1416 1421 1424 1429 1433 1437 1441 1444 1448 1451 1454 1457 1459 1462 1465 1468 1470 1472 1475 1478 1481
1412 1408 1402 1400 1401 1402 1406 1412 1414 1418 1424 1428 1439 1448 1440 1436 1439 1437 1444 1445 1419 1397 1397 1396 1394 1395 1393 1393 1394 1394 1393 1393 1394 1395 1395 1395 1396 1397 1399 1401 1405 1409 1412 1416 1420 1424 1429 1432 1436 1439 1443 1446 1449 1451 1454 1458 1460 1462 1464 1468 1471 1474 1477
1408 1404 1402 1400 1400 1403 1407 1408 1407 1412 1418 1418 1422 1429 1431 1434 1437 1436 1445 1444 1417 1395 1393 1393 1391 1391 1390 1390 1391 1391 1391 1390 1390 1392 1393 1394 1395 1396 1398 1401 1404 1407 1411 1415 1418 1422 1425 1427 1431 1435 1438 1441 1443 1446 1450 1453 1455 1457 1460 1464 1467 1470 1473
1422 1417 1414 1410 1405 1406 1409 1407 1406 1407 1410 1413 1416 1420 1427 1432 1429 1429 1439 1436 1414 1396 1393 1393 1392 1392 1390 1389 1388 1389 1389 1388 1389 1390 1391 1392 1394 1395 1397 1400 1402 1406 1409 1412 1415 1417 1419 1422 1426 1429 1432 1435 1438 1441 1444 1447 1449 1452 1456 1460 1463 1466 1469
1435 1432 1428 1423 1418 1414 1409 1404 1403 1404 1406 1410 1414 1418 1428 1431 1425 1422 1425 1422 1408 1397 1394 1393 1393 1394 1393 1388 1386 1388 1388 1387 1387 1388 1389 1390 1391 1392 1394 1396 1399 1401 1404 1407 1410 1412 1414 1417 1420 1424 1427 1430 1433 1436 1439 1441 1444 1448 1452 1456 1459 1461 1465
1434 1435 1431 1425 1424 1425 1418 1409 1404 1402 1402 1404 1407 1413 1418 1420 1422 1420 1413 1409 1405 1399 1395 1394 1393 1393 1393 1389 1386 1386 1385 1384 1385 1385 1386 1387 1388 1389 1390 1392 1394 1397 1399 1403 1405 1407 1410 1412 1415 1418 1421 1425 1428 1431 1434 1437 1440 1444 1448 1451 1454 1457 1460
1433 1434 1430 1423 1424 1427 1424 1417 1408 1400 1399 1400 1402 1405 1403 1406 1417 1418 1405 1402 1406 1400 1394 1392 1391 1391 1391 1388 1385 1383 1382 1382 1383 1383 1384 1385 1386 1387 1388 1389 1391 1393 1395 1397 1400 1403 1405 1408 1411 1414 1417 1420 1423 1426 1429 1432 1436 1440 1443 1446 1449 1452 1455
1433 1431 1428 1422 1422 1423 1419 1416 1410 1402 1398 1396 1394 1395 1396 1398 1404 1404 1397 1400 1403 1398 1392 1390 1387 1386 1385 1383 1381 1381 1381 1381 1382 1382 1382 1383 1383 1384 1385 1386 1387 1388 1390 1392 1395 1397 1400 1404 1407 1410 1413 1416 1419 1423 1425 1429 1432 1434 1438 1441 1444 1447 1449
1432 1428 1425 1421 1420 1419 1415 1411 1407 1402 1396 1392 1389 1391 1393 1394 1394 1392 1393 1398 1398 1390 1386 1384 1381 1380 1380 1379 1378 1379 1380 1380 1380 1381 1380 1380 1381 1382 1382 1383 1383 1385 1386 1387 1389 1392 1395 1399 1402 1406 1409 1411 1414 1417 1420 1423 1426 1429 1433 1436 1438 1441 1443
1434 1425 1421 1420 1418 1418 1416 1410 1405 1400 1396 1391 1389 1390 1391 1393 1394 1392 1392 1396 1395 1387 1382 1380 1378 1377 1378 1378 1378 1377 1377 1378 1379 1379 1379 1378 1378 1379 1379 1380 1380 1382 1383 1385 1386 1389 1392 1394 1397 1400 1403 1406 1409 1412 1415 1418 1421 1424 1428 1430 1433 1435 1437
1437 1425 1423 1422 1417 1413 1409 1402 1398 1397 1396 1393 1389 1387 1387 1388 1391 1392 1392 1393 1391 1385 1381 1380 1378 1376 1378 1378 1376 1375 1375 1376 1378 1378 1377 1376 1376 1376 1376 1377 1377 1379 1380 1382 1383 1385 1386 1389 1392 1394 1397 1401 1404 1407 1410 1413 1416 1420 1424 1426 1428 1430 1431
1438 1426 1425 1424 1420 1415 1404 1393 1391 1390 1388 1387 1385 1382 1380 1379 1382 1385 1383 1380 1379 1378 1379 1380 1378 1376 1376 1375 1374 1374 1374 1374 1376 1376 1375 1374 1374 1374 1374 1374 1375 1376 1376 1378 1379 1380 1382 1385 1387 1389 1392 1396 1398 1401 1404 1407 1412 1416 1419 1421 1423 1425 1428
1439 1429 1426 1426 1424 1417 1399 1387 1388 1388 1382 1380 1380 1377 1375 1373 1372 1370 1368 1368 1370 1372 1375 1377 1375 1372 1371 1371 1371 1372 1372 1373 1374 1373 1373 1372 1372 1371 1371 1372 1372 1372 1373 1374 1376 1378 1380 1382 1384 1387 1390 1392 1394 1397 1401 1405 1408 1411 1413 1416 1418 1420 1423
1438 1430 1428 1428 1420 1404 1389 1383 1385 1384 1380 1379 1376 1370 1366 1366 1366 1365 1366 1367 1366 1366 1368 1368 1366 1366 1368 1369 1370 1370 1370 1370 1371 1371 1371 1370 1370 1369 1369 1369 1369 1369 1370 1371 1373 1375 1377 1379 1381 1384 1387 1389 1393 1396 1399 1402 1404 1405 1408 1410 1413 1416 1419
1437 1434 1434 1426 1408 1392 1385 1386 1385 1381 1381 1384 1382 1373 1363 1361 1364 1366 1367 1366 1363 1363 1364 1362 1363 1366 1367 1368 1369 1369 1369 1369 1369 1369 1369 1368 1368 1367 1366 1367 1366 1366 1367 1368 1369 1371 1374 1377 1379 1381 1384 1387 1390 1393 1395 1398 1400 1402 1405 1407 1410 1413 1415
1432 1434 1431 1420 1408 1397 1391 1391 1390 1389 1390 1392 1394 1388 1373 1364 1366 1366 1364 1364 1363 1362 1361 1361 1363 1365 1366 1369 1369 1367 1367 1367 1367 1367 1367 1366 1366 1365 1365 1364 1364 1364 1365 1365 1366 1369 1371 1374 1377 1379 1383 1386 1388 1390 1392 1395 1397 1400 1403 1405 1407 1410 1412
1427 1430 1429 1423 1419 1408 1397 1394 1394 1393 1392 1390 1393 1396 1383 1368 1367 1368 1365 1363 1361 1360 1361 1362 1362 1365 1370 1371 1368 1365 1366 1365 1365 1365 1365 1365 1365 1364 1363 1363 1362 1362 1362 1363 1364 1366 1368 1371 1374 1377 1380 1383 1386 1388 1390 1392 1395 1397 1399 1400 1403 1406 1408
1424 1428 1429 1426 1419 1404 1394 1394 1392 1390 1390 1387 1390 1396 1384 1369 1368 1371 1368 1365 1360 1357 1359 1360 1361 1366 1372 1371 1366 1363 1364 1364 1364 1364 1364 1364 1364 1363 1362 1362 1361 1361 1361 1362 1363 1365 1367 1369 1372 1375 1377 1380 1382 1385 1387 1390 1392 1393 1394 1395 1398 1401 1404
1417 1420 1422 1418 1409 1396 1391 1392 1389 1385 1385 1386 1392 1393 1380 1369 1370 1371 1369 1366 1361 1357 1358 1358 1358 1361 1364 1363 1361 1362 1363 1363 1363 1364 1364 1364 1363 1362 1361 1360 1360 1360 1360 1361 1362 1364 1365 1368 1370 1373 1375 1378 1380 1382 1384 1387 1389 1389 1390 1392 1395 1398 1401
1413 1416 1417 1413 1403 1392 1388 1389 1386 1382 1382 1386 1391 1388 1378 1374 1373 1369 1367 1365 1360 1358 1358 1356 1353 1354 1355 1355 1358 1360 1361 1361 1362 1364 1364 1363 1363 1362 1361 1360 1359 1360 1359 1360 1361 1362 1364 1366 1368 1371 1373 1375 1377 1379 1382 1383 1384 1385 1388 1390 1394 1397 1399
1411 1410 1413 1413 1403 1390 1386 1386 1384 1381 1384 1389 1388 1383 1380 1380 1375 1368 1366 1363 1358 1357 1358 1356 1352 1352 1354 1355 1357 1359 1360 1361 1362 1363 1363 1362 1362 1362 1362 1361 1360 1360 1359 1359 1360 1362 1363 1365 1367 1370 1372 1374 1376 1378 1379 1379 1380 1383 1387 1390 1393 1395 1397
1408 1409 1410 1411 1402 1388 1383 1383 1383 1384 1388 1390 1387 1382 1381 1380 1375 1369 1366 1362 1359 1358 1359 1360 1357 1353 1354 1356 1357 1358 1360 1360 1361 1362 1360 1360 1360 1360 1361 1360 1359 1359 1360 1360 1361 1362 1364 1365 1367 1368 1370 1372 1375 1377 1377 1378 1381 1384 1387 1389 1391 1393 1395
1401 1404 1399 1393 1388 1383 1380 1380 1382 1386 1388 1387 1385 1383 1379 1377 1375 1371 1367 1363 1360 1359 1362 1365 1362 1357 1355 1356 1356 1358 1360 1359 1360 1360 1359 1359 1359 1359 1360 1360 1360 1361 1361 1361 1363 1364 1365 1366 1367 1368 1370 1371 1374 1376 1377 1379 1382 1384 1385 1387 1389 1391 1392
1394 1392 1384 1378 1378 1381 1380 1378 1379 1383 1385 1385 1384 1383 1378 1375 1374 1371 1367 1364 1360 1359 1364 1368 1366 1361 1358 1357 1356 1358 1358 1358 1358 1358 1358 1359 1359 1359 1360 1361 1362 1363 1363 1363 1364 1365 1366 1367 1368 1368 1370 1371 1373 1374 1376 1378 1380 1381 1383 1385 1386 1387 1389
1394 1388 1378 1374 1377 1379 1379 1378 1377 1379 1382 1384 1384 1381 1378 1375 1373 1371 1369 1365 1361 1359 1362 1366 1367 1365 1361 1359 1358 1357 1356 1356 1356 1357 1358 1358 1359 1359 1360 1361 1362 1363 1364 1365 1366 1366 1367 1368 1368 1369 1370 1371 1372 1373 1374 1375 1377 1378 1380 1382 1383 1384 1386
1397 1389 1378 1374 1377 1378 1377 1377 1375 1376 1381 1383 1382 1381 1379 1376 1374 1372 1370 1368 1364 1360 1359 1363 1368 1368 1365 1363 1360 1357 1356 1356 1355 1356 1357 1357 1358 1358 1359 1360 1361 1362 1363 1365 1365 1366 1367 1368 1368 1369 1370 1370 1372 1372 1373 1374 1374 1376 1377 1379 1381 1382 1383
1395 1387 1377 1374 1377 1376 1375 1375 1375 1376 1380 1382 1380 1379 1380 1378 1377 1375 1373 1371 1367 1361 1358 1360 1366 1369 1370 1368 1365 1361 1359 1358 1357 1358 1358 1358 1359 1359 1360 1360 1361 1362 1362 1363 1363 1364 1365 1366 1367 1368 1369 1369 1370 1370 1371 1372 1373 1374 1376 1377 1378 1379 1381
1396 1387 1378 1375 1376 1376 1374 1374 1374 1376 1380 1381 1379 1378 1380 1381 1381 1379 1377 1376 1372 1364 1358 1358 1363 1370 1374 1373 1371 1367 1363 1360 1360 1359 1360 1360 1361 1361 1361 1362 1362 1362 1363 1363 1363 1364 1364 1365 1365 1366 1366 1367 1368 1368 1369 1370 1371 1373 1374 1375 1376 1377 1378
1396 1386 1378 1374 1374 1375 1374 1372 1373 1377 1380 1380 1379 1379 1381 1384 1384 1383 1382 1381 1375 1367 1361 1358 1361 1370 1377 1379 1377 1372 1367 1364 1363 1362 1362 1362 1362 1362 1362 1362 1363 1363 1364 1364 1365 1365 1365 1365 1365 1365 1365 1366 1367 1367 1368 1369 1370 1371 1372 1373 1374 1375 1375
1390 1382 1379 1375 1372 1372 1372 1371 1371 1375 1379 1379 1379 1380 1381 1383 1384 1384 1385 1383 1376 1369 1365 1362 1363 1371 1381 1384 1381 1374 1368 1366 1365 1364 1364 1364 1363 1363 1363 1363 1363 1364 1364 1365 1366 1366 1366 1366 1366 1366 1366 1366 1367 1367 1368 1368 1369 1370 1370 1371 1371 1372 1373
1387 1382 1380 1377 1373 1371 1371 1370 1370 1373 1376 1376 1377 1378 1380 1382 1383 1383 1384 1383 1377 1372 1369 1366 1368 1376 1385 1388 1383 1374 1368 1366 1365 1365 1365 1365 1364 1364 1364 1364 1365 1365 1365 1366 1366 1365 1366 1366 1366 1366 1366 1367 1367 1367 1367 1367 1368 1368 1369 1369 1370 1370 1370
1386 1381 1377 1375 1372 1370 1370 1370 1371 1373 1374 1374 1374 1375 1379 1382 1383 1382 1382 1382 1379 1376 1373 1371 1374 1381 1388 1389 1383 1374 1368 1366 1367 1367 1366 1366 1366 1366 1366 1367 1367 1367 1367 1367 1366 1366 1366 1365 1365 1365 1366 1366 1367 1366 1366 1366 1367 1367 1368 1368 1368 1369 1369